Voltar ao catálogo

DELTA 1 DEB

AtivoLEO
NORAD 7190·DEBRIS·🇺🇸 United States

Lançado Nov 6, 1973 de Vandenberg Space Force Base

Loading…

Próximas Passagens (próximas 24 horas)

TLE

AtualizadoSource: Space-Track

Época: Sep 13, 2026, 19:27 UTC

1 07190U 73086EY  26256.81067713  .00002443  00000-0  20548-2 0  9999
2 07190 102.7340 220.3842 0220822 111.0659 251.4244 13.78870171591927

Acompanhe DELTA 1 DEB em tempo real com AllMySat

Download on the App Store